SCP
0 0 0 0 0 0 0 0 0 0 0 0 0 0 0 0 0 0 0 0 0 0 0 0 0 0 0 0 0 0 0 0 0 0 0 0 0 0 0 0 0 0 0 0
0 0 0 0 0 0 0 0 0 0 -0 0 0 0 0 0 0 0 0 0 0 0 0 0 0 0 0 0 0 0 0 0 0 0 0 0 0 0 0 0 0 0 0 0
0 0 0 0 0 0 0 0 0 0 0 0 0 0 0 0 0 0 0 0 0 0 0 0 0 0 0 0 0 0 0 0 0 0 0 0 0 0 0 0 0 0 0 0
0 0 0 0 0 0 0 0 0 0 0 0 0 0 0 0 0 0 0 0 0 0 0 0 0 0 0 0 0 0 0 0 0 -0 0 0 0 0 0 0 0 0 0 0
0 0 0 0 0 0 0 0 0 -0 0 0 0 0 0 0 0 0 0 0 0 0 0 0 0 0 0 0 0 0 0 0 0 -0 -0 0 0 0 0 0 0 0 0 0
0 0 0 0 0 0 0 0 0 0 0 0 0 0 0 0 0 0 0 0 0 0 0 0 0 0 0 0 0 0 0 0 0 0 0 -0 0 0 0 0 0 0 0 0
0 0 0 0 0 0 0 0 0 0 0 0 0 0 0 0 0 0 0 0 0 0 0 0 0 0 0 0 0 0 0 0 0 0 0 0 0 0 0 0 0 0 0 0
0 0 0 0 0 0 0 0 0 0 -0 -0 -0 0 0 0 0 0 0 0 0 0 0 0 0 0 0 0 0 0 0 0 0 0 0 0 0 -0 0 0 0 0 -0 0
0 0 0 -0 -0 -0 0 0 0 0 -0 0 0 0 0 0 0 0 0 0 0 0 0 0 0 0 0 0 0 0 0 0 0 0 0 0 0 0 0 0 0 0 0 -0
0 0 0 0 0 0 0 0 0 0 0 0 0 0 0 0 0 0 0 0 0 0 0 0 0 0 0 0 0 0 0 0 0 0 0 0 0 0 0 -0 -0 -0 -0 -0
0 0 0 0 0 0 0 0 0 0 0 0 0 0 0 0 0 0 0 0 0 0 0 0 0 0 0 0 0 0 0 0 0 0 0 0 0 0 0 0 0 0 0 0
0 0 0 0 0 0 0 0 0 0 0 0 0 0 0 0 0 0 0 0 0 0 0 0 0 0 0 0 0 0 0 0 0 0 0 0 0 0 0 0 0 0 0 0
0 0 0 -0 -0 0 0 0 0 0 0 0 0 0 0 0 0 0 0 0 0 -0 -0 0 -0 -0 0 -0 -0 -0 -0 0 0 0 0 0 0 0 0 0 0 -0 0 0
0 0 -0 0 0 -0 0 0 0 0 0 0 0 0 0 0 0 0 0 0 0 0 0 0 -0 -0 -0 -0 -0 -0 -0 -0 -0 -0 0 0 0 0 0 0 0 0 0 0
0 0 0 0 0 0 0 0 0 -0 0 0 0 0 0 -0 0 0 0 0 0 0 0 0 0 -0 0 -0 0 0 0 0 0 0 0 0 0 0 0 0 0 0 0 0
0 0 0 0 0 0 0 0 0 0 0 0 0 0 0 0 0 0 0 0 0 0 0 0 0 0 0 0 0 0 0 0 0 0 0 0 0 0 0 0 0 0 0 0
0 0 0 0 0 0 0 0 0 0 0 0 0 0 0 0 0 0 0 0 0 0 0 0 0 0 0 0 0 0 0 0 0 0 0 0 0 0 0 0 0 0 0 0
0 0 0 0 0 0 0 0 0 0 0 0 0 0 0 0 0 0 0 0 0 0 0 0 0 0 0 0 0 0 0 0 0 0 0 0 0 0 0 0 0 0 0 0
0 0 0 0 0 0 0 0 0 0 0 0 0 0 0 0 0 0 0 0 0 0 0 0 0 0 0 0 0 0 0 0 0 0 0 0 0 0 0 0 0 0 0 0
0 0 0 0 0 0 0 0 0 0 0 0 0 0 0 0 0 0 0 0 0 0 0 0 0 0 0 0 0 0 0 0 0 0 0 0 0 0 0 0 0 0 0 0
0 0 0 0 0 0 0 0 0 0 0 0 0 0 0 0 0 0 0 0 0 0 0 0 0 0 0 0 0 0 0 0 0 0 0 0 0 0 0 0 0 0 0 0
0 0 0 0 0 0 0 0 0 0 0 0 0 0 0 0 0 0 0 0 0 0 0 0 0 0 0 0 0 0 0 0 0 0 0 0 0 0 0 0 0 0 0 0
0 0 0 0 0 0 0 0 0 0 0 0 0 0 0 0 0 0 0 0 0 0 0 0 0 0 0 0 0 0 0 0 0 0 0 0 0 0 0 0 0 0 0 0
0 0 0 -0 -0 0 0 0 -0 -0 0 0 0 0 0 0 0 0 0 0 0 0 0 0 0 0 0 0 0 0 0 0 0 0 0 0 0 0 0 0 0 0 0 0
0 0 0 0 0 0 0 -0 0 0 0 0 0 0 0 0 0 0 0 0 0 0 0 0 0 0 0 0 0 0 0 0 0 0 0 0 0 0 0 0 0 0 0 0
0 0 0 0 0 0 0 0 0 0 0 0 0 0 0 0 0 0 0 0 0 0 0 0 0 0 0 0 0 0 0 0 0 0 0 0 0 0 0 0 0 0 0 0
0 0 0 0 0 0 0 0 0 0 0 0 0 0 0 0 0 0 0 0 0 0 0 0 0 0 0 0 0 0 0 0 0 0 0 0 0 0 0 0 0 0 0 0
Wind_Speed_500mb
6 5 4 5 10 24 18 13 15 23 22 32 14 15 24 38 44 37 32 22 20 17 22 28 34 39 44 48 51 53 57 60 61 55 50 49 48 46 42 42 37 29 22 25
6 2 6 9 15 25 31 7 25 26 41 39 54 40 38 42 28 39 35 23 16 15 20 24 30 36 42 45 47 49 51 56 59 58 53 48 43 39 34 32 31 24 18 14
9 4 1 13 24 33 15 12 19 19 35 2 11 9 24 33 34 41 33 21 15 13 15 19 25 29 35 39 41 43 47 51 54 55 53 48 43 38 36 36 35 32 24 18
6 1 8 12 4 13 27 19 31 20 24 13 19 29 53 52 46 40 27 22 16 10 10 15 19 21 26 30 33 38 42 47 50 51 53 51 48 41 39 39 39 41 39 34
5 7 12 15 7 14 16 18 41 45 34 13 16 26 43 8 12 14 18 18 16 10 8 11 15 15 18 23 27 30 38 44 49 51 52 56 56 56 53 51 47 46 47 46
4 8 14 10 5 11 8 10 9 25 22 13 12 2 11 11 11 11 14 17 16 13 11 10 12 12 12 16 19 25 33 40 43 46 50 53 55 60 63 65 67 61 58 58
5 6 17 16 11 19 8 10 3 30 19 25 11 18 14 18 20 19 19 18 19 18 15 12 8 9 9 10 12 19 26 29 32 37 41 46 48 54 60 67 70 74 75 77
6 4 19 25 15 13 10 1 2 19 25 28 29 32 38 39 34 33 30 25 24 25 21 18 12 8 7 3 6 12 17 21 25 29 33 37 41 46 51 56 62 67 71 75
21 16 4 46 16 47 12 10 13 15 8 17 26 46 49 47 41 41 39 33 30 29 27 25 20 13 10 7 3 4 10 11 15 21 24 28 33 38 42 45 50 54 57 59
6 13 31 42 48 53 46 49 52 52 53 49 61 55 56 51 44 42 43 42 35 35 36 34 28 20 16 13 11 7 4 3 7 12 18 24 27 31 34 40 42 46 47 48
10 16 29 41 45 43 39 43 46 35 42 47 50 58 56 53 48 42 41 41 42 43 42 38 36 30 23 20 18 16 11 7 2 3 8 12 15 20 25 29 33 36 39 36
13 22 10 5 7 13 26 33 41 50 51 43 39 44 44 47 43 42 41 41 48 49 49 43 44 40 34 27 23 23 19 13 7 5 3 2 5 9 13 17 19 21 23 24
9 21 28 33 45 55 61 52 47 49 50 53 54 52 51 54 47 41 41 42 49 52 49 46 49 48 43 38 32 28 25 20 16 12 9 7 5 5 7 9 11 14 17 20
58 51 49 52 49 56 67 79 75 73 66 62 62 60 63 63 59 59 56 48 46 46 51 51 53 54 48 47 42 36 30 26 23 22 18 15 10 8 7 6 6 7 9 10
52 66 84 79 81 76 70 72 75 72 77 83 73 67 64 63 64 57 51 50 48 48 50 56 60 57 54 54 50 43 37 31 26 26 24 22 18 16 14 13 11 10 10 11
63 63 64 68 68 66 65 73 76 83 81 77 69 62 57 53 55 56 52 52 58 58 53 60 65 57 56 58 54 50 44 39 36 33 30 27 24 21 18 16 15 16 17 17
57 59 62 67 74 75 70 77 78 79 76 72 68 60 52 51 57 51 52 54 61 59 54 55 56 55 56 60 57 54 49 46 43 41 37 34 29 27 25 25 24 22 20 23
73 81 74 72 75 82 86 76 69 67 66 65 62 58 53 52 54 46 43 44 57 63 60 54 52 56 57 57 57 54 52 50 48 46 42 41 37 34 32 31 30 27 21 21
78 71 65 67 64 61 59 58 57 57 58 59 60 60 56 52 48 43 43 45 52 59 57 52 52 58 59 56 54 54 53 52 52 51 48 46 44 41 39 37 34 30 27 26
45 48 44 40 38 38 44 45 53 56 52 53 51 49 49 43 38 39 41 41 42 41 43 43 47 54 56 54 53 51 51 53 53 50 48 47 46 44 41 39 37 36 37 32
22 23 26 30 31 32 40 45 49 50 46 42 40 37 34 31 27 23 24 27 27 30 35 33 31 36 49 47 46 48 49 48 50 48 46 45 45 42 41 38 39 39 42 40
15 14 19 24 25 24 28 29 33 35 37 34 29 28 25 21 18 11 8 12 13 15 17 19 25 27 30 37 42 43 41 42 43 43 43 41 39 40 42 42 43 41 38 37
10 15 13 17 19 19 23 23 24 26 26 25 21 17 14 12 9 7 4 6 9 11 11 15 26 33 33 32 31 33 35 35 36 38 37 39 39 40 39 36 35 34 33 33
18 20 21 23 21 15 19 28 28 28 28 26 23 20 14 12 8 8 4 2 6 13 12 9 13 21 23 21 20 20 22 22 23 25 25 26 26 26 26 26 26 25 25 25
18 17 16 16 23 33 30 28 26 29 29 31 31 31 28 22 18 22 17 17 15 9 11 15 12 13 14 15 14 13 12 12 12 13 14 13 14 14 14 15 16 16 16 16
19 25 27 29 32 31 31 30 37 39 37 40 42 40 38 37 34 32 31 30 28 28 31 28 26 23 22 19 17 16 15 13 10 8 6 5 4 2 3 3 3 3 3 3
22 24 26 30 33 33 34 38 41 47 45 45 48 44 41 40 38 38 37 38 39 39 38 36 33 30 27 25 22 20 18 17 15 14 13 13 12 12 12 12 13 12 10 8
Wind_Direction_500mb
254 225 187 204 173 177 200 194 189 263 209 254 261 240 264 293 299 289 285 275 278 310 335 344 350 357 359 358 358 359 1 360 358 354 351 347 344 344 343 340 333 327 311 276
277 217 200 259 225 197 215 235 259 271 286 266 275 281 273 281 294 290 285 278 274 310 330 345 351 0 4 4 6 4 9 8 5 4 2 360 358 358 4 5 1 1 16 7
261 44 299 291 229 199 195 208 195 203 237 324 268 242 262 286 290 289 286 272 260 292 322 345 350 1 6 11 14 10 15 14 11 13 14 13 12 11 22 24 28 33 42 56
216 91 258 247 148 193 207 232 211 261 255 215 245 287 296 292 289 288 270 251 244 270 314 339 341 358 9 15 20 20 25 29 22 23 28 30 32 30 39 42 42 45 47 49
183 204 298 290 196 156 171 271 206 221 248 253 283 307 298 279 287 280 240 234 243 255 293 317 332 350 8 16 24 28 32 38 37 34 37 40 42 46 49 52 50 54 59 59
143 181 216 239 166 174 167 297 195 187 228 183 123 354 266 254 274 258 238 238 242 247 263 291 319 334 357 14 23 36 41 38 41 43 45 47 51 54 57 61 63 58 64 69
187 242 285 239 159 151 100 237 148 193 203 159 179 223 275 288 285 268 250 246 247 247 253 268 291 314 330 10 32 44 49 47 43 43 46 49 49 54 60 64 64 67 67 69
118 115 265 150 101 184 207 98 211 206 202 207 246 270 278 291 287 271 258 250 251 244 244 249 254 270 289 329 57 55 51 44 47 48 48 53 55 58 58 62 64 68 71 72
190 206 256 191 206 211 193 266 262 234 241 270 266 286 295 293 287 280 265 254 247 246 244 243 244 251 255 238 200 86 70 58 58 56 54 51 51 56 59 59 64 67 70 74
126 236 235 238 239 252 252 265 280 279 280 281 283 292 293 296 291 279 267 256 250 245 244 240 239 235 240 238 233 221 160 95 65 59 54 49 48 48 52 61 61 65 65 65
269 278 281 267 251 260 271 275 279 296 295 290 288 289 289 289 291 286 271 259 247 248 246 238 235 230 229 235 239 241 233 206 219 71 68 56 48 45 48 52 55 57 62 64
216 230 201 209 297 301 305 296 296 300 303 299 291 294 295 291 288 283 275 262 248 246 243 234 233 232 225 228 236 243 247 246 242 262 286 9 16 37 50 44 47 59 67 68
224 244 252 283 290 291 292 294 299 297 292 291 293 291 292 291 288 283 274 264 252 247 244 237 232 235 228 227 229 231 239 243 250 253 259 272 299 346 3 18 30 29 30 30
244 261 283 280 280 293 292 297 298 296 294 292 295 293 292 287 283 272 271 272 266 252 241 234 231 233 231 230 231 231 230 232 237 243 248 252 259 271 285 299 319 334 342 350
251 266 269 275 280 286 292 291 291 292 298 299 299 296 293 286 276 273 274 265 261 251 241 235 232 230 227 230 232 233 234 232 233 241 248 256 261 266 274 284 299 308 308 304
249 256 266 269 277 283 286 285 288 293 299 300 301 300 298 288 276 268 264 254 250 247 246 238 233 233 227 230 232 232 234 234 236 239 242 248 253 258 265 277 290 303 305 303
248 260 265 271 278 284 286 291 292 295 297 296 301 301 295 283 274 269 260 256 248 250 248 246 244 236 230 230 232 235 236 236 236 239 243 248 251 258 264 269 273 278 289 304
265 274 276 276 280 286 290 292 292 293 294 298 298 294 290 284 280 276 269 272 251 245 245 242 237 233 233 233 234 233 235 236 238 241 244 247 251 253 256 260 265 270 277 302
267 273 276 278 283 288 289 291 294 295 300 305 300 293 289 280 276 270 276 271 247 244 245 242 239 231 230 228 232 234 234 236 237 240 243 246 249 252 255 258 262 266 266 276
264 273 280 284 288 292 293 294 296 299 306 306 301 296 296 291 277 271 276 267 251 251 250 247 246 235 231 228 230 235 237 239 240 242 245 248 252 255 256 260 263 267 268 262
260 273 282 289 296 301 298 299 300 302 307 309 303 302 304 294 279 274 275 261 248 243 247 253 242 233 227 229 231 236 239 240 242 242 243 248 253 256 258 260 261 261 265 269
301 309 303 303 308 314 310 315 313 316 317 317 311 303 300 296 286 285 274 265 258 264 268 254 219 212 216 224 230 233 237 242 245 246 248 250 253 255 257 257 260 264 266 266
316 333 3 6 7 359 355 353 352 354 353 352 352 343 329 312 287 276 257 269 222 198 203 199 195 201 208 215 220 226 233 232 241 248 248 249 249 254 259 259 259 260 261 259
32 24 17 29 38 46 36 37 35 36 35 38 39 41 44 49 50 51 59 183 193 176 177 166 181 188 192 197 201 204 214 223 231 244 245 245 246 247 247 247 247 249 252 256
43 44 54 59 52 57 59 60 62 63 61 62 65 65 65 71 74 76 83 91 96 120 127 103 108 130 148 148 155 166 186 193 202 213 213 212 216 222 233 242 249 257 265 272
66 63 63 63 66 69 74 75 73 74 73 75 77 77 79 81 86 88 87 89 91 98 103 104 107 114 121 128 133 138 138 136 138 142 145 153 161 204 239 263 286 307 330 4
73 75 76 79 80 80 81 83 83 81 80 81 83 83 85 88 89 89 89 91 92 94 97 98 99 98 100 100 99 97 96 95 94 92 90 86 87 87 85 82 79 73 65 51
Wind_Speed_850mb
6 5 4 5 10 24 18 13 15 23 22 32 14 15 24 38 44 37 32 22 20 17 22 28 34 39 44 48 51 53 57 60 61 55 50 49 48 46 42 42 37 29 22 25
6 2 6 9 15 25 31 7 25 26 41 39 54 40 38 42 28 39 35 23 16 15 20 24 30 36 42 45 47 49 51 56 59 58 53 48 43 39 34 32 31 24 18 14
9 4 1 13 24 33 15 12 19 19 35 2 11 9 24 33 34 41 33 21 15 13 15 19 25 29 35 39 41 43 47 51 54 55 53 48 43 38 36 36 35 32 24 18
6 1 8 12 4 13 27 19 31 20 24 13 19 29 53 52 46 40 27 22 16 10 10 15 19 21 26 30 33 38 42 47 50 51 53 51 48 41 39 39 39 41 39 34
5 7 12 15 7 14 16 18 41 45 34 13 16 26 43 8 12 14 18 18 16 10 8 11 15 15 18 23 27 30 38 44 49 51 52 56 56 56 53 51 47 46 47 46
4 8 14 10 5 11 8 10 9 25 22 13 12 2 11 11 11 11 14 17 16 13 11 10 12 12 12 16 19 25 33 40 43 46 50 53 55 60 63 65 67 61 58 58
5 6 17 16 11 19 8 10 3 30 19 25 11 18 14 18 20 19 19 18 19 18 15 12 8 9 9 10 12 19 26 29 32 37 41 46 48 54 60 67 70 74 75 77
6 4 19 25 15 13 10 1 2 19 25 28 29 32 38 39 34 33 30 25 24 25 21 18 12 8 7 3 6 12 17 21 25 29 33 37 41 46 51 56 62 67 71 75
21 16 4 46 16 47 12 10 13 15 8 17 26 46 49 47 41 41 39 33 30 29 27 25 20 13 10 7 3 4 10 11 15 21 24 28 33 38 42 45 50 54 57 59
6 13 31 42 48 53 46 49 52 52 53 49 61 55 56 51 44 42 43 42 35 35 36 34 28 20 16 13 11 7 4 3 7 12 18 24 27 31 34 40 42 46 47 48
10 16 29 41 45 43 39 43 46 35 42 47 50 58 56 53 48 42 41 41 42 43 42 38 36 30 23 20 18 16 11 7 2 3 8 12 15 20 25 29 33 36 39 36
13 22 10 5 7 13 26 33 41 50 51 43 39 44 44 47 43 42 41 41 48 49 49 43 44 40 34 27 23 23 19 13 7 5 3 2 5 9 13 17 19 21 23 24
9 21 28 33 45 55 61 52 47 49 50 53 54 52 51 54 47 41 41 42 49 52 49 46 49 48 43 38 32 28 25 20 16 12 9 7 5 5 7 9 11 14 17 20
58 51 49 52 49 56 67 79 75 73 66 62 62 60 63 63 59 59 56 48 46 46 51 51 53 54 48 47 42 36 30 26 23 22 18 15 10 8 7 6 6 7 9 10
52 66 84 79 81 76 70 72 75 72 77 83 73 67 64 63 64 57 51 50 48 48 50 56 60 57 54 54 50 43 37 31 26 26 24 22 18 16 14 13 11 10 10 11
63 63 64 68 68 66 65 73 76 83 81 77 69 62 57 53 55 56 52 52 58 58 53 60 65 57 56 58 54 50 44 39 36 33 30 27 24 21 18 16 15 16 17 17
57 59 62 67 74 75 70 77 78 79 76 72 68 60 52 51 57 51 52 54 61 59 54 55 56 55 56 60 57 54 49 46 43 41 37 34 29 27 25 25 24 22 20 23
73 81 74 72 75 82 86 76 69 67 66 65 62 58 53 52 54 46 43 44 57 63 60 54 52 56 57 57 57 54 52 50 48 46 42 41 37 34 32 31 30 27 21 21
78 71 65 67 64 61 59 58 57 57 58 59 60 60 56 52 48 43 43 45 52 59 57 52 52 58 59 56 54 54 53 52 52 51 48 46 44 41 39 37 34 30 27 26
45 48 44 40 38 38 44 45 53 56 52 53 51 49 49 43 38 39 41 41 42 41 43 43 47 54 56 54 53 51 51 53 53 50 48 47 46 44 41 39 37 36 37 32
22 23 26 30 31 32 40 45 49 50 46 42 40 37 34 31 27 23 24 27 27 30 35 33 31 36 49 47 46 48 49 48 50 48 46 45 45 42 41 38 39 39 42 40
15 14 19 24 25 24 28 29 33 35 37 34 29 28 25 21 18 11 8 12 13 15 17 19 25 27 30 37 42 43 41 42 43 43 43 41 39 40 42 42 43 41 38 37
10 15 13 17 19 19 23 23 24 26 26 25 21 17 14 12 9 7 4 6 9 11 11 15 26 33 33 32 31 33 35 35 36 38 37 39 39 40 39 36 35 34 33 33
18 20 21 23 21 15 19 28 28 28 28 26 23 20 14 12 8 8 4 2 6 13 12 9 13 21 23 21 20 20 22 22 23 25 25 26 26 26 26 26 26 25 25 25
18 17 16 16 23 33 30 28 26 29 29 31 31 31 28 22 18 22 17 17 15 9 11 15 12 13 14 15 14 13 12 12 12 13 14 13 14 14 14 15 16 16 16 16
19 25 27 29 32 31 31 30 37 39 37 40 42 40 38 37 34 32 31 30 28 28 31 28 26 23 22 19 17 16 15 13 10 8 6 5 4 2 3 3 3 3 3 3
22 24 26 30 33 33 34 38 41 47 45 45 48 44 41 40 38 38 37 38 39 39 38 36 33 30 27 25 22 20 18 17 15 14 13 13 12 12 12 12 13 12 10 8
Wind_Direction_850mb
254 225 187 204 173 177 200 194 189 263 209 254 261 240 264 293 299 289 285 275 278 310 335 344 350 357 359 358 358 359 1 360 358 354 351 347 344 344 343 340 333 327 311 276
277 217 200 259 225 197 215 235 259 271 286 266 275 281 273 281 294 290 285 278 274 310 330 345 351 0 4 4 6 4 9 8 5 4 2 360 358 358 4 5 1 1 16 7
261 44 299 291 229 199 195 208 195 203 237 324 268 242 262 286 290 289 286 272 260 292 322 345 350 1 6 11 14 10 15 14 11 13 14 13 12 11 22 24 28 33 42 56
216 91 258 247 148 193 207 232 211 261 255 215 245 287 296 292 289 288 270 251 244 270 314 339 341 358 9 15 20 20 25 29 22 23 28 30 32 30 39 42 42 45 47 49
183 204 298 290 196 156 171 271 206 221 248 253 283 307 298 279 287 280 240 234 243 255 293 317 332 350 8 16 24 28 32 38 37 34 37 40 42 46 49 52 50 54 59 59
143 181 216 239 166 174 167 297 195 187 228 183 123 354 266 254 274 258 238 238 242 247 263 291 319 334 357 14 23 36 41 38 41 43 45 47 51 54 57 61 63 58 64 69
187 242 285 239 159 151 100 237 148 193 203 159 179 223 275 288 285 268 250 246 247 247 253 268 291 314 330 10 32 44 49 47 43 43 46 49 49 54 60 64 64 67 67 69
118 115 265 150 101 184 207 98 211 206 202 207 246 270 278 291 287 271 258 250 251 244 244 249 254 270 289 329 57 55 51 44 47 48 48 53 55 58 58 62 64 68 71 72
190 206 256 191 206 211 193 266 262 234 241 270 266 286 295 293 287 280 265 254 247 246 244 243 244 251 255 238 200 86 70 58 58 56 54 51 51 56 59 59 64 67 70 74
126 236 235 238 239 252 252 265 280 279 280 281 283 292 293 296 291 279 267 256 250 245 244 240 239 235 240 238 233 221 160 95 65 59 54 49 48 48 52 61 61 65 65 65
269 278 281 267 251 260 271 275 279 296 295 290 288 289 289 289 291 286 271 259 247 248 246 238 235 230 229 235 239 241 233 206 219 71 68 56 48 45 48 52 55 57 62 64
216 230 201 209 297 301 305 296 296 300 303 299 291 294 295 291 288 283 275 262 248 246 243 234 233 232 225 228 236 243 247 246 242 262 286 9 16 37 50 44 47 59 67 68
224 244 252 283 290 291 292 294 299 297 292 291 293 291 292 291 288 283 274 264 252 247 244 237 232 235 228 227 229 231 239 243 250 253 259 272 299 346 3 18 30 29 30 30
244 261 283 280 280 293 292 297 298 296 294 292 295 293 292 287 283 272 271 272 266 252 241 234 231 233 231 230 231 231 230 232 237 243 248 252 259 271 285 299 319 334 342 350
251 266 269 275 280 286 292 291 291 292 298 299 299 296 293 286 276 273 274 265 261 251 241 235 232 230 227 230 232 233 234 232 233 241 248 256 261 266 274 284 299 308 308 304
249 256 266 269 277 283 286 285 288 293 299 300 301 300 298 288 276 268 264 254 250 247 246 238 233 233 227 230 232 232 234 234 236 239 242 248 253 258 265 277 290 303 305 303
248 260 265 271 278 284 286 291 292 295 297 296 301 301 295 283 274 269 260 256 248 250 248 246 244 236 230 230 232 235 236 236 236 239 243 248 251 258 264 269 273 278 289 304
265 274 276 276 280 286 290 292 292 293 294 298 298 294 290 284 280 276 269 272 251 245 245 242 237 233 233 233 234 233 235 236 238 241 244 247 251 253 256 260 265 270 277 302
267 273 276 278 283 288 289 291 294 295 300 305 300 293 289 280 276 270 276 271 247 244 245 242 239 231 230 228 232 234 234 236 237 240 243 246 249 252 255 258 262 266 266 276
264 273 280 284 288 292 293 294 296 299 306 306 301 296 296 291 277 271 276 267 251 251 250 247 246 235 231 228 230 235 237 239 240 242 245 248 252 255 256 260 263 267 268 262
260 273 282 289 296 301 298 299 300 302 307 309 303 302 304 294 279 274 275 261 248 243 247 253 242 233 227 229 231 236 239 240 242 242 243 248 253 256 258 260 261 261 265 269
301 309 303 303 308 314 310 315 313 316 317 317 311 303 300 296 286 285 274 265 258 264 268 254 219 212 216 224 230 233 237 242 245 246 248 250 253 255 257 257 260 264 266 266
316 333 3 6 7 359 355 353 352 354 353 352 352 343 329 312 287 276 257 269 222 198 203 199 195 201 208 215 220 226 233 232 241 248 248 249 249 254 259 259 259 260 261 259
32 24 17 29 38 46 36 37 35 36 35 38 39 41 44 49 50 51 59 183 193 176 177 166 181 188 192 197 201 204 214 223 231 244 245 245 246 247 247 247 247 249 252 256
43 44 54 59 52 57 59 60 62 63 61 62 65 65 65 71 74 76 83 91 96 120 127 103 108 130 148 148 155 166 186 193 202 213 213 212 216 222 233 242 249 257 265 272
66 63 63 63 66 69 74 75 73 74 73 75 77 77 79 81 86 88 87 89 91 98 103 104 107 114 121 128 133 138 138 136 138 142 145 153 161 204 239 263 286 307 330 4
73 75 76 79 80 80 81 83 83 81 80 81 83 83 85 88 89 89 89 91 92 94 97 98 99 98 100 100 99 97 96 95 94 92 90 86 87 87 85 82 79 73 65 51